Year,Month,Day,Hour,Minute,Value (Times are PST for temperature in C)
2012,07,20,00,00,14.20
2012,07,20,00,01,14.20
2012,07,20,00,02,14.20
2012,07,20,00,03,14.20
2012,07,20,00,04,14.20
2012,07,20,00,05,14.20
2012,07,20,00,06,14.10
2012,07,20,00,07,14.10
2012,07,20,00,08,14.00
2012,07,20,00,09,14.00
2012,07,20,00,10,13.90
2012,07,20,00,11,13.90
2012,07,20,00,12,13.90
2012,07,20,00,13,13.80
2012,07,20,00,14,13.70
2012,07,20,00,15,13.70
2012,07,20,00,16,13.70
2012,07,20,00,17,13.60
2012,07,20,00,18,13.60
2012,07,20,00,19,13.60
2012,07,20,00,20,13.70
2012,07,20,00,21,13.70
2012,07,20,00,22,13.70
2012,07,20,00,23,13.80
2012,07,20,00,24,13.90
2012,07,20,00,25,14.00
2012,07,20,00,26,14.00
2012,07,20,00,27,14.10
2012,07,20,00,28,14.20
2012,07,20,00,29,14.30
2012,07,20,00,30,14.40
2012,07,20,00,31,14.50
2012,07,20,00,32,14.60
2012,07,20,00,33,14.70
2012,07,20,00,34,14.80
2012,07,20,00,35,14.90
2012,07,20,00,36,15.00
2012,07,20,00,37,15.10
2012,07,20,00,38,15.10
2012,07,20,00,39,15.10
2012,07,20,00,40,15.00
2012,07,20,00,41,15.00
2012,07,20,00,42,14.80
2012,07,20,00,43,14.60
2012,07,20,00,44,14.40
2012,07,20,00,45,14.20
2012,07,20,00,46,14.10
2012,07,20,00,47,14.00
2012,07,20,00,48,13.90
2012,07,20,00,49,13.90
2012,07,20,00,50,13.90
2012,07,20,00,51,13.80
2012,07,20,00,52,13.80
2012,07,20,00,53,13.90
2012,07,20,00,54,13.90
2012,07,20,00,55,13.90
2012,07,20,00,56,13.90
2012,07,20,00,57,14.00
2012,07,20,00,58,14.00
2012,07,20,00,59,14.10
2012,07,20,01,00,14.20
2012,07,20,01,01,14.30
2012,07,20,01,02,14.40
2012,07,20,01,03,14.50
2012,07,20,01,04,14.60
2012,07,20,01,05,14.70
2012,07,20,01,06,14.80
2012,07,20,01,07,14.80
2012,07,20,01,08,14.90
2012,07,20,01,09,15.00
2012,07,20,01,10,15.00
2012,07,20,01,11,15.10
2012,07,20,01,12,15.10
2012,07,20,01,13,15.20
2012,07,20,01,14,15.20
2012,07,20,01,15,15.20
2012,07,20,01,16,15.30
2012,07,20,01,17,15.30
2012,07,20,01,18,15.40
2012,07,20,01,19,15.50
2012,07,20,01,20,15.50
2012,07,20,01,21,15.60
2012,07,20,01,22,15.60
2012,07,20,01,23,15.70
2012,07,20,01,24,15.80
2012,07,20,01,25,15.80
2012,07,20,01,26,15.90
2012,07,20,01,27,16.00
2012,07,20,01,28,16.10
2012,07,20,01,29,16.20
2012,07,20,01,30,16.30
2012,07,20,01,31,16.30
2012,07,20,01,32,16.40
2012,07,20,01,33,16.40
2012,07,20,01,34,16.40
2012,07,20,01,35,16.40
2012,07,20,01,36,16.40
2012,07,20,01,37,16.30
2012,07,20,01,38,16.20
2012,07,20,01,39,16.10
2012,07,20,01,40,15.90
2012,07,20,01,41,15.80
2012,07,20,01,42,15.60
2012,07,20,01,43,15.50
2012,07,20,01,44,15.40
2012,07,20,01,45,15.10
2012,07,20,01,46,15.00
2012,07,20,01,47,14.80
2012,07,20,01,48,14.70
2012,07,20,01,49,14.70
2012,07,20,01,50,14.60
2012,07,20,01,51,14.50
2012,07,20,01,52,14.40
2012,07,20,01,53,14.40
2012,07,20,01,54,14.30
2012,07,20,01,55,14.10
2012,07,20,01,56,13.90
2012,07,20,01,57,13.70
2012,07,20,01,58,13.60
2012,07,20,01,59,13.40
2012,07,20,02,00,13.20
2012,07,20,02,01,13.00
2012,07,20,02,02,12.90
2012,07,20,02,03,12.80
2012,07,20,02,04,12.80
2012,07,20,02,05,12.80
2012,07,20,02,06,12.80
2012,07,20,02,07,12.80
2012,07,20,02,08,12.70
2012,07,20,02,09,12.70
2012,07,20,02,10,12.60
2012,07,20,02,11,12.60
2012,07,20,02,12,12.60
2012,07,20,02,13,12.50
2012,07,20,02,14,12.60
2012,07,20,02,15,12.60
2012,07,20,02,16,12.60
2012,07,20,02,17,12.60
2012,07,20,02,18,12.70
2012,07,20,02,19,12.80
2012,07,20,02,20,12.80
2012,07,20,02,21,12.80
2012,07,20,02,22,12.80
2012,07,20,02,23,12.90
2012,07,20,02,24,13.00
2012,07,20,02,25,13.00
2012,07,20,02,26,13.10
2012,07,20,02,27,13.20
2012,07,20,02,28,13.30
2012,07,20,02,29,13.30
2012,07,20,02,30,13.30
2012,07,20,02,31,13.40
2012,07,20,02,32,13.40
2012,07,20,02,33,13.50
2012,07,20,02,34,13.60
2012,07,20,02,35,13.60
2012,07,20,02,36,13.60
2012,07,20,02,37,13.70
2012,07,20,02,38,13.70
2012,07,20,02,39,13.70
2012,07,20,02,40,13.70
2012,07,20,02,41,13.80
2012,07,20,02,42,13.80
2012,07,20,02,43,13.80
2012,07,20,02,44,13.80
2012,07,20,02,45,13.90
2012,07,20,02,46,13.90
2012,07,20,02,47,13.90
2012,07,20,02,48,13.90
2012,07,20,02,49,13.90
2012,07,20,02,50,13.90
2012,07,20,02,51,13.80
2012,07,20,02,52,13.80
2012,07,20,02,53,13.70
2012,07,20,02,54,13.70
2012,07,20,02,55,13.70
2012,07,20,02,56,13.70
2012,07,20,02,57,13.70
2012,07,20,02,58,13.70
2012,07,20,02,59,13.70
2012,07,20,03,00,13.70
2012,07,20,03,01,13.70
2012,07,20,03,02,13.60
2012,07,20,03,03,13.60
2012,07,20,03,04,13.60
2012,07,20,03,05,13.50
2012,07,20,03,06,13.50
2012,07,20,03,07,13.50
2012,07,20,03,08,13.40
2012,07,20,03,09,13.40
2012,07,20,03,10,13.40
2012,07,20,03,11,13.40
2012,07,20,03,12,13.30
2012,07,20,03,13,13.30
2012,07,20,03,14,13.30
2012,07,20,03,15,13.30
2012,07,20,03,16,13.30
2012,07,20,03,17,13.30
2012,07,20,03,18,13.30
2012,07,20,03,19,13.30
2012,07,20,03,20,13.30
2012,07,20,03,21,13.30
2012,07,20,03,22,13.30
2012,07,20,03,23,13.30
2012,07,20,03,24,13.30
2012,07,20,03,25,13.30
2012,07,20,03,26,13.30
2012,07,20,03,27,13.30
2012,07,20,03,28,13.30
2012,07,20,03,29,13.30
2012,07,20,03,30,13.30
2012,07,20,03,31,13.30
2012,07,20,03,32,13.30
2012,07,20,03,33,13.30
2012,07,20,03,34,13.30
2012,07,20,03,35,13.30
2012,07,20,03,36,13.30
2012,07,20,03,37,13.30
2012,07,20,03,38,13.30
2012,07,20,03,39,13.30
2012,07,20,03,40,13.30
2012,07,20,03,41,13.30
2012,07,20,03,42,13.30
2012,07,20,03,43,13.20
2012,07,20,03,44,13.10
2012,07,20,03,45,13.10
2012,07,20,03,46,13.00
2012,07,20,03,47,12.90
2012,07,20,03,48,12.80
2012,07,20,03,49,12.70
2012,07,20,03,50,12.70
2012,07,20,03,51,12.60
2012,07,20,03,52,12.60
2012,07,20,03,53,12.60
2012,07,20,03,54,12.50
2012,07,20,03,55,12.50
2012,07,20,03,56,12.50
2012,07,20,03,57,12.50
2012,07,20,03,58,12.50
2012,07,20,03,59,12.50
2012,07,20,04,00,12.50
2012,07,20,04,01,12.50
2012,07,20,04,02,12.50
2012,07,20,04,03,12.50
2012,07,20,04,04,12.50
2012,07,20,04,05,12.50
2012,07,20,04,06,12.60
2012,07,20,04,07,12.60
2012,07,20,04,08,12.60
2012,07,20,04,09,12.60
2012,07,20,04,10,12.70
2012,07,20,04,11,12.70
2012,07,20,04,12,12.70
2012,07,20,04,13,12.80
2012,07,20,04,14,12.80
2012,07,20,04,15,12.80
2012,07,20,04,16,12.80
2012,07,20,04,17,12.80
2012,07,20,04,18,12.80
2012,07,20,04,19,12.80
2012,07,20,04,20,12.80
2012,07,20,04,21,12.80
2012,07,20,04,22,12.80
2012,07,20,04,23,12.70
2012,07,20,04,24,12.70
2012,07,20,04,25,12.60
2012,07,20,04,26,12.60
2012,07,20,04,27,12.60
2012,07,20,04,28,12.60
2012,07,20,04,29,12.60
2012,07,20,04,30,12.70
2012,07,20,04,31,12.70
2012,07,20,04,32,12.70
2012,07,20,04,33,12.70
2012,07,20,04,34,12.70
2012,07,20,04,35,12.70
2012,07,20,04,36,12.80
2012,07,20,04,37,12.80
2012,07,20,04,38,12.80
2012,07,20,04,39,12.80
2012,07,20,04,40,12.90
2012,07,20,04,41,12.90
2012,07,20,04,42,12.90
2012,07,20,04,43,12.90
2012,07,20,04,44,12.90
2012,07,20,04,45,12.90
2012,07,20,04,46,12.90
2012,07,20,04,47,12.90
2012,07,20,04,48,12.90
2012,07,20,04,49,12.80
2012,07,20,04,50,12.80
2012,07,20,04,51,12.80
2012,07,20,04,52,12.80
2012,07,20,04,53,12.80
2012,07,20,04,54,12.80
2012,07,20,04,55,12.80
2012,07,20,04,56,12.90
2012,07,20,04,57,12.90
2012,07,20,04,58,12.90
2012,07,20,04,59,12.90
2012,07,20,05,00,12.90
2012,07,20,05,01,12.80
2012,07,20,05,02,12.80
2012,07,20,05,03,12.80
2012,07,20,05,04,12.80
2012,07,20,05,05,12.80
2012,07,20,05,06,12.80
2012,07,20,05,07,12.80
2012,07,20,05,08,12.90
2012,07,20,05,09,13.00
2012,07,20,05,10,13.00
2012,07,20,05,11,13.00
2012,07,20,05,12,13.00
2012,07,20,05,13,13.00
2012,07,20,05,14,13.00
2012,07,20,05,15,13.00
2012,07,20,05,16,13.10
2012,07,20,05,17,13.10
2012,07,20,05,18,13.20
2012,07,20,05,19,13.20
2012,07,20,05,20,13.30
2012,07,20,05,21,13.40
2012,07,20,05,22,13.50
2012,07,20,05,23,13.50
2012,07,20,05,24,13.60
2012,07,20,05,25,13.60
2012,07,20,05,26,13.80
2012,07,20,05,27,13.90
2012,07,20,05,28,14.00
2012,07,20,05,29,14.10
2012,07,20,05,30,14.20
2012,07,20,05,31,14.20
2012,07,20,05,32,14.30
2012,07,20,05,33,14.40
2012,07,20,05,34,14.50
2012,07,20,05,35,14.60
2012,07,20,05,36,14.60
2012,07,20,05,37,14.70
2012,07,20,05,38,14.70
2012,07,20,05,39,14.80
2012,07,20,05,40,14.80
2012,07,20,05,41,14.80
2012,07,20,05,42,14.90
2012,07,20,05,43,14.90
2012,07,20,05,44,14.90
2012,07,20,05,45,14.90
2012,07,20,05,46,14.90
2012,07,20,05,47,14.70
2012,07,20,05,48,14.40
2012,07,20,05,49,14.20
2012,07,20,05,50,14.00
2012,07,20,05,51,14.00
2012,07,20,05,52,13.90
2012,07,20,05,53,13.90
2012,07,20,05,54,13.80
2012,07,20,05,55,13.80
2012,07,20,05,56,13.70
2012,07,20,05,57,13.70
2012,07,20,05,58,13.70
2012,07,20,05,59,13.60
2012,07,20,06,00,13.60
2012,07,20,06,01,13.60
2012,07,20,06,02,13.60
2012,07,20,06,03,13.70
2012,07,20,06,04,13.70
2012,07,20,06,05,13.70
2012,07,20,06,06,13.70
2012,07,20,06,07,13.70
2012,07,20,06,08,13.80
2012,07,20,06,09,13.80
2012,07,20,06,10,13.90
2012,07,20,06,11,13.90
2012,07,20,06,12,13.90
2012,07,20,06,13,14.00
2012,07,20,06,14,14.00
2012,07,20,06,15,14.00
2012,07,20,06,16,14.10
2012,07,20,06,17,14.10
2012,07,20,06,18,14.20
2012,07,20,06,19,14.20
2012,07,20,06,20,14.20
2012,07,20,06,21,14.20
2012,07,20,06,22,14.20
2012,07,20,06,23,14.20
2012,07,20,06,24,14.20
2012,07,20,06,25,14.20
2012,07,20,06,26,14.30
2012,07,20,06,27,14.30
2012,07,20,06,28,14.40
2012,07,20,06,29,14.40
2012,07,20,06,30,14.30
2012,07,20,06,31,14.10
2012,07,20,06,32,13.90
2012,07,20,06,33,13.70
2012,07,20,06,34,13.60
2012,07,20,06,35,13.50
2012,07,20,06,36,13.50
2012,07,20,06,37,13.40
2012,07,20,06,38,13.40
2012,07,20,06,39,13.40
2012,07,20,06,40,13.40
2012,07,20,06,41,13.50
2012,07,20,06,42,13.50
2012,07,20,06,43,13.50
2012,07,20,06,44,13.50
2012,07,20,06,45,13.50
2012,07,20,06,46,13.50
2012,07,20,06,47,13.50
2012,07,20,06,48,13.60
2012,07,20,06,49,13.60
2012,07,20,06,50,13.60
2012,07,20,06,51,13.60
2012,07,20,06,52,13.60
2012,07,20,06,53,13.60
2012,07,20,06,54,13.50
2012,07,20,06,55,13.50
2012,07,20,06,56,13.50
2012,07,20,06,57,13.40
2012,07,20,06,58,13.30
2012,07,20,06,59,13.30
2012,07,20,07,00,13.30
2012,07,20,07,01,13.30
2012,07,20,07,02,13.30
2012,07,20,07,03,13.30
2012,07,20,07,04,13.30
2012,07,20,07,05,13.30
2012,07,20,07,06,13.30
2012,07,20,07,07,13.30
2012,07,20,07,08,13.20
2012,07,20,07,09,13.20
2012,07,20,07,10,13.10
2012,07,20,07,11,13.10
2012,07,20,07,12,13.10
2012,07,20,07,13,13.10
2012,07,20,07,14,13.10
2012,07,20,07,15,13.10
2012,07,20,07,16,13.20
2012,07,20,07,17,13.20
2012,07,20,07,18,13.20
2012,07,20,07,19,13.20
2012,07,20,07,20,13.20
2012,07,20,07,21,13.20
2012,07,20,07,22,13.30
2012,07,20,07,23,13.30
2012,07,20,07,24,13.30
2012,07,20,07,25,13.30
2012,07,20,07,26,13.30
2012,07,20,07,27,13.30
2012,07,20,07,28,13.30
2012,07,20,07,29,13.30
2012,07,20,07,30,13.30
2012,07,20,07,31,13.30
2012,07,20,07,32,13.30
2012,07,20,07,33,13.30
2012,07,20,07,34,13.30
2012,07,20,07,35,13.30
2012,07,20,07,36,13.30
2012,07,20,07,37,13.30
2012,07,20,07,38,13.30
2012,07,20,07,39,13.40
2012,07,20,07,40,13.40
2012,07,20,07,41,13.40
2012,07,20,07,42,13.40
2012,07,20,07,43,13.40
2012,07,20,07,44,13.40
2012,07,20,07,45,13.30
2012,07,20,07,46,13.30
2012,07,20,07,47,13.30
2012,07,20,07,48,13.30
2012,07,20,07,49,13.30
2012,07,20,07,50,13.30
2012,07,20,07,51,13.30
2012,07,20,07,52,13.30
2012,07,20,07,53,13.30
2012,07,20,07,54,13.30
2012,07,20,07,55,13.30
2012,07,20,07,56,13.30
2012,07,20,07,57,13.30
2012,07,20,07,58,13.30
2012,07,20,07,59,13.40
2012,07,20,08,00,13.50
2012,07,20,08,01,13.50
2012,07,20,08,02,13.60
2012,07,20,08,03,13.50
2012,07,20,08,04,13.50
2012,07,20,08,05,13.40
2012,07,20,08,06,13.40
2012,07,20,08,07,13.40
2012,07,20,08,08,13.30
2012,07,20,08,09,13.30
2012,07,20,08,10,13.30
2012,07,20,08,11,13.20
2012,07,20,08,12,13.20
2012,07,20,08,13,13.10
2012,07,20,08,14,13.10
2012,07,20,08,15,13.00
2012,07,20,08,16,13.00
2012,07,20,08,17,13.00
2012,07,20,08,18,13.00
2012,07,20,08,19,13.00
2012,07,20,08,20,13.00
2012,07,20,08,21,13.00
2012,07,20,08,22,13.00
2012,07,20,08,23,13.00
2012,07,20,08,24,13.00
2012,07,20,08,25,13.00
2012,07,20,08,26,13.00
2012,07,20,08,27,13.00
2012,07,20,08,28,13.00
2012,07,20,08,29,13.00
2012,07,20,08,30,13.10
2012,07,20,08,31,13.10
2012,07,20,08,32,13.10
2012,07,20,08,33,13.20
2012,07,20,08,34,13.30
2012,07,20,08,35,13.30
2012,07,20,08,36,13.30
2012,07,20,08,37,13.40
2012,07,20,08,38,13.40
2012,07,20,08,39,13.50
2012,07,20,08,40,13.50
2012,07,20,08,41,13.60
2012,07,20,08,42,13.60
2012,07,20,08,43,13.60
2012,07,20,08,44,13.60
2012,07,20,08,45,13.60
2012,07,20,08,46,13.60
2012,07,20,08,47,13.70
2012,07,20,08,48,13.70
2012,07,20,08,49,13.70
2012,07,20,08,50,13.70
2012,07,20,08,51,13.70
2012,07,20,08,52,13.70
2012,07,20,08,53,13.70
2012,07,20,08,54,13.70
2012,07,20,08,55,13.70
2012,07,20,08,56,13.60
2012,07,20,08,57,13.60
2012,07,20,08,58,13.60
2012,07,20,08,59,13.60
2012,07,20,09,00,13.60
2012,07,20,09,01,13.60
2012,07,20,09,02,13.60
2012,07,20,09,03,13.60
2012,07,20,09,04,13.60
2012,07,20,09,05,13.70
2012,07,20,09,06,13.70
2012,07,20,09,07,13.60
2012,07,20,09,08,13.60
2012,07,20,09,09,13.50
2012,07,20,09,10,13.50
2012,07,20,09,11,13.50
2012,07,20,09,12,13.50
2012,07,20,09,13,13.60
2012,07,20,09,14,13.60
2012,07,20,09,15,13.60
2012,07,20,09,16,13.60
2012,07,20,09,17,13.70
2012,07,20,09,18,13.70
2012,07,20,09,19,13.70
2012,07,20,09,20,13.70
2012,07,20,09,21,13.70
2012,07,20,09,22,13.70
2012,07,20,09,23,13.70
2012,07,20,09,24,13.80
2012,07,20,09,25,13.80
2012,07,20,09,26,13.90
2012,07,20,09,27,13.90
2012,07,20,09,28,14.00
2012,07,20,09,29,14.00
2012,07,20,09,30,14.10
2012,07,20,09,31,14.10
2012,07,20,09,32,14.20
2012,07,20,09,33,14.20
2012,07,20,09,34,14.20
2012,07,20,09,35,14.30
2012,07,20,09,36,14.40
2012,07,20,09,37,14.40
2012,07,20,09,38,14.50
2012,07,20,09,39,14.60
2012,07,20,09,40,14.60
2012,07,20,09,41,14.70
2012,07,20,09,42,14.80
2012,07,20,09,43,14.80
2012,07,20,09,44,14.80
2012,07,20,09,45,14.90
2012,07,20,09,46,14.90
2012,07,20,09,47,15.00
2012,07,20,09,48,15.00
2012,07,20,09,49,15.00
2012,07,20,09,50,14.90
2012,07,20,09,51,14.80
2012,07,20,09,52,14.70
2012,07,20,09,53,14.60
2012,07,20,09,54,14.60
2012,07,20,09,55,14.50
2012,07,20,09,56,14.50
2012,07,20,09,57,14.50
2012,07,20,09,58,14.50
2012,07,20,09,59,14.60
2012,07,20,10,00,14.60
2012,07,20,10,01,14.60
2012,07,20,10,02,14.60
2012,07,20,10,03,14.60
2012,07,20,10,04,14.50
2012,07,20,10,05,14.50
2012,07,20,10,06,14.50
2012,07,20,10,07,14.50
2012,07,20,10,08,14.40
2012,07,20,10,09,14.40
2012,07,20,10,10,14.40
2012,07,20,10,11,14.40
2012,07,20,10,12,14.30
2012,07,20,10,13,14.30
2012,07,20,10,14,14.20
2012,07,20,10,15,14.20
2012,07,20,10,16,14.20
2012,07,20,10,17,14.20
2012,07,20,10,18,14.20
2012,07,20,10,19,14.20
2012,07,20,10,20,14.20
2012,07,20,10,21,14.20
2012,07,20,10,22,14.20
2012,07,20,10,23,14.20
2012,07,20,10,24,14.20
2012,07,20,10,25,14.20
2012,07,20,10,26,14.20
2012,07,20,10,27,14.20
2012,07,20,10,28,14.20
2012,07,20,10,29,14.20
2012,07,20,10,30,14.20
2012,07,20,10,31,14.30
2012,07,20,10,32,14.30
2012,07,20,10,33,14.40
2012,07,20,10,34,14.40
2012,07,20,10,35,14.40
2012,07,20,10,36,14.50
2012,07,20,10,37,14.50
2012,07,20,10,38,14.60
2012,07,20,10,39,14.60
2012,07,20,10,40,14.60
2012,07,20,10,41,14.70
2012,07,20,10,42,14.70
2012,07,20,10,43,14.70
2012,07,20,10,44,14.70
2012,07,20,10,45,14.70
2012,07,20,10,46,14.80
2012,07,20,10,47,14.80
2012,07,20,10,48,14.80
2012,07,20,10,49,14.80
2012,07,20,10,50,14.80
2012,07,20,10,51,14.90
2012,07,20,10,52,14.90
2012,07,20,10,53,14.90
2012,07,20,10,54,14.90
2012,07,20,10,55,14.90
2012,07,20,10,56,14.90
2012,07,20,10,57,15.00
2012,07,20,10,58,15.00
2012,07,20,10,59,15.00
2012,07,20,11,00,14.90
2012,07,20,11,01,14.90
2012,07,20,11,02,14.90
2012,07,20,11,03,14.90
2012,07,20,11,04,14.80
2012,07,20,11,05,14.90
2012,07,20,11,06,14.90
2012,07,20,11,07,14.80
2012,07,20,11,08,14.80
2012,07,20,11,09,14.80
2012,07,20,11,10,14.70
2012,07,20,11,11,14.70
2012,07,20,11,12,14.70
2012,07,20,11,13,14.70
2012,07,20,11,14,14.70
2012,07,20,11,15,14.70
2012,07,20,11,16,14.70
2012,07,20,11,17,14.70
2012,07,20,11,18,14.70
2012,07,20,11,19,14.70
2012,07,20,11,20,14.70
2012,07,20,11,21,14.70
2012,07,20,11,22,14.70
2012,07,20,11,23,14.70
2012,07,20,11,24,14.70
2012,07,20,11,25,14.70
2012,07,20,11,26,14.70
2012,07,20,11,27,14.80
2012,07,20,11,28,14.80
2012,07,20,11,29,14.80
2012,07,20,11,30,14.80
2012,07,20,11,31,14.80
2012,07,20,11,32,14.80
2012,07,20,11,33,14.80
2012,07,20,11,34,14.80
2012,07,20,11,35,14.80
2012,07,20,11,36,14.80
2012,07,20,11,37,14.90
2012,07,20,11,38,14.90
2012,07,20,11,39,15.00
2012,07,20,11,40,15.00
2012,07,20,11,41,14.90
2012,07,20,11,42,14.90
2012,07,20,11,43,14.90
2012,07,20,11,44,14.90
2012,07,20,11,45,14.90
2012,07,20,11,46,14.90
2012,07,20,11,47,14.90
2012,07,20,11,48,14.90
2012,07,20,11,49,14.90
2012,07,20,11,50,14.90
2012,07,20,11,51,14.90
2012,07,20,11,52,14.90
2012,07,20,11,53,14.90
2012,07,20,11,54,15.00
2012,07,20,11,55,15.00
2012,07,20,11,56,15.10
2012,07,20,11,57,15.10
2012,07,20,11,58,15.10
2012,07,20,11,59,15.10
2012,07,20,12,00,15.10
2012,07,20,12,01,15.10
2012,07,20,12,02,15.10
2012,07,20,12,03,15.10
2012,07,20,12,04,15.10
2012,07,20,12,05,15.10
2012,07,20,12,06,15.10
2012,07,20,12,07,15.10
2012,07,20,12,08,15.10
2012,07,20,12,09,15.10
2012,07,20,12,10,15.00
2012,07,20,12,11,15.00
2012,07,20,12,12,15.10
2012,07,20,12,13,15.10
2012,07,20,12,14,15.10
2012,07,20,12,15,15.10
2012,07,20,12,16,15.10
2012,07,20,12,17,15.10
2012,07,20,12,18,15.20
2012,07,20,12,19,15.30
2012,07,20,12,20,15.30
2012,07,20,12,21,15.30
2012,07,20,12,22,15.40
2012,07,20,12,23,15.50
2012,07,20,12,24,15.50
2012,07,20,12,25,15.60
2012,07,20,12,26,15.60
2012,07,20,12,27,15.70
2012,07,20,12,28,15.70
2012,07,20,12,29,15.80
2012,07,20,12,30,15.80
2012,07,20,12,31,15.80
2012,07,20,12,32,15.80
2012,07,20,12,33,15.80
2012,07,20,12,34,15.80
2012,07,20,12,35,15.90
2012,07,20,12,36,15.90
2012,07,20,12,37,16.10
2012,07,20,12,38,16.10
2012,07,20,12,39,16.10
2012,07,20,12,40,16.10
2012,07,20,12,41,16.10
2012,07,20,12,42,16.20
2012,07,20,12,43,16.20
2012,07,20,12,44,16.30
2012,07,20,12,45,16.30
2012,07,20,12,46,16.30
2012,07,20,12,47,16.30
2012,07,20,12,48,16.30
2012,07,20,12,49,16.30
2012,07,20,12,50,16.30
2012,07,20,12,51,16.40
2012,07,20,12,52,16.40
2012,07,20,12,53,16.40
2012,07,20,12,54,16.40
2012,07,20,12,55,16.50
2012,07,20,12,56,16.60
2012,07,20,12,57,16.70
2012,07,20,12,58,16.70
2012,07,20,12,59,16.70
2012,07,20,13,00,16.80
2012,07,20,13,01,16.90
2012,07,20,13,02,16.90
2012,07,20,13,03,16.90
2012,07,20,13,04,17.00
2012,07,20,13,05,17.00
2012,07,20,13,06,17.10
2012,07,20,13,07,17.10
2012,07,20,13,08,17.20
2012,07,20,13,09,17.20
2012,07,20,13,10,17.30
2012,07,20,13,11,17.30
2012,07,20,13,12,17.30
2012,07,20,13,13,17.30
2012,07,20,13,14,17.30
2012,07,20,13,15,17.30
2012,07,20,13,16,17.30
2012,07,20,13,17,17.30
2012,07,20,13,18,17.30
2012,07,20,13,19,17.30
2012,07,20,13,20,17.30
2012,07,20,13,21,17.30
2012,07,20,13,22,17.30
2012,07,20,13,23,17.30
2012,07,20,13,24,17.30
2012,07,20,13,25,17.20
2012,07,20,13,26,17.10
2012,07,20,13,27,17.10
2012,07,20,13,28,17.00
2012,07,20,13,29,17.00
2012,07,20,13,30,17.00
2012,07,20,13,31,17.00
2012,07,20,13,32,17.00
2012,07,20,13,33,17.00
2012,07,20,13,34,17.00
2012,07,20,13,35,17.00
2012,07,20,13,36,17.00
2012,07,20,13,37,17.00
2012,07,20,13,38,16.90
2012,07,20,13,39,16.90
2012,07,20,13,40,16.90
2012,07,20,13,41,16.80
2012,07,20,13,42,16.80
2012,07,20,13,43,16.70
2012,07,20,13,44,16.50
2012,07,20,13,45,16.40
2012,07,20,13,46,16.20
2012,07,20,13,47,16.10
2012,07,20,13,48,16.00
2012,07,20,13,49,15.80
2012,07,20,13,50,15.80
2012,07,20,13,51,15.80
2012,07,20,13,52,15.80
2012,07,20,13,53,15.80
2012,07,20,13,54,15.80
2012,07,20,13,55,15.90
2012,07,20,13,56,15.90
2012,07,20,13,57,15.90
2012,07,20,13,58,16.00
2012,07,20,13,59,16.00
2012,07,20,14,00,15.90
2012,07,20,14,01,15.90
2012,07,20,14,02,15.90
2012,07,20,14,03,15.90
2012,07,20,14,04,16.00
2012,07,20,14,05,16.10
2012,07,20,14,06,16.10
2012,07,20,14,07,16.20
2012,07,20,14,08,16.30
2012,07,20,14,09,16.40
2012,07,20,14,10,16.40
2012,07,20,14,11,16.40
2012,07,20,14,12,16.30
2012,07,20,14,13,16.20
2012,07,20,14,14,15.90
2012,07,20,14,15,15.70
2012,07,20,14,16,15.60
2012,07,20,14,17,15.40
2012,07,20,14,18,15.20
2012,07,20,14,19,15.00
2012,07,20,14,20,14.90
2012,07,20,14,21,14.90
2012,07,20,14,22,14.90
2012,07,20,14,23,14.90
2012,07,20,14,24,15.00
2012,07,20,14,25,15.00
2012,07,20,14,26,15.00
2012,07,20,14,27,15.00
2012,07,20,14,28,15.00
2012,07,20,14,29,15.10
2012,07,20,14,30,15.10
2012,07,20,14,31,15.10
2012,07,20,14,32,15.10
2012,07,20,14,33,15.10
2012,07,20,14,34,15.00
2012,07,20,14,35,15.00
2012,07,20,14,36,15.00
2012,07,20,14,37,15.00
2012,07,20,14,38,15.10
2012,07,20,14,39,15.10
2012,07,20,14,40,15.10
2012,07,20,14,41,15.10
2012,07,20,14,42,15.10
2012,07,20,14,43,15.10
2012,07,20,14,44,15.00
2012,07,20,14,45,15.00
2012,07,20,14,46,14.90
2012,07,20,14,47,14.90
2012,07,20,14,48,14.90
2012,07,20,14,49,15.10
2012,07,20,14,50,15.20
2012,07,20,14,51,15.30
2012,07,20,14,52,15.40
2012,07,20,14,53,15.60
2012,07,20,14,54,15.60
2012,07,20,14,55,15.60
2012,07,20,14,56,15.50
2012,07,20,14,57,15.30
2012,07,20,14,58,15.30
2012,07,20,14,59,15.30
2012,07,20,15,00,15.30
2012,07,20,15,01,15.40
2012,07,20,15,02,15.50
2012,07,20,15,03,15.60
2012,07,20,15,04,15.60
2012,07,20,15,05,15.60
2012,07,20,15,06,15.60
2012,07,20,15,07,15.60
2012,07,20,15,08,15.60
2012,07,20,15,09,15.60
2012,07,20,15,10,15.70
2012,07,20,15,11,15.70
2012,07,20,15,12,15.60
2012,07,20,15,13,15.40
2012,07,20,15,14,15.30
2012,07,20,15,15,15.20
2012,07,20,15,16,15.10
2012,07,20,15,17,15.00
2012,07,20,15,18,15.00
2012,07,20,15,19,15.00
2012,07,20,15,20,14.90
2012,07,20,15,21,14.90
2012,07,20,15,22,14.90
2012,07,20,15,23,14.90
2012,07,20,15,24,14.90
2012,07,20,15,25,14.80
2012,07,20,15,26,14.80
2012,07,20,15,27,14.80
2012,07,20,15,28,14.80
2012,07,20,15,29,15.00
2012,07,20,15,30,15.10
2012,07,20,15,31,15.40
2012,07,20,15,32,15.70
2012,07,20,15,33,16.00
2012,07,20,15,34,16.50
2012,07,20,15,35,16.90
2012,07,20,15,36,17.10
2012,07,20,15,37,17.30
2012,07,20,15,38,17.30
2012,07,20,15,39,17.30
2012,07,20,15,40,17.30
2012,07,20,15,41,17.20
2012,07,20,15,42,17.30
2012,07,20,15,43,17.30
2012,07,20,15,44,17.30
2012,07,20,15,45,17.20
2012,07,20,15,46,17.10
2012,07,20,15,47,17.10
2012,07,20,15,48,17.10
2012,07,20,15,49,17.00
2012,07,20,15,50,17.00
2012,07,20,15,51,17.00
2012,07,20,15,52,17.10
2012,07,20,15,53,17.20
2012,07,20,15,54,17.40
2012,07,20,15,55,17.60
2012,07,20,15,56,17.80
2012,07,20,15,57,18.10
2012,07,20,15,58,18.30
2012,07,20,15,59,18.50
2012,07,20,16,00,18.70
2012,07,20,16,01,18.80
2012,07,20,16,02,19.00
2012,07,20,16,03,19.10
2012,07,20,16,04,19.30
2012,07,20,16,05,19.40
2012,07,20,16,06,19.50
2012,07,20,16,07,19.60
2012,07,20,16,08,19.70
2012,07,20,16,09,19.70
2012,07,20,16,10,19.80
2012,07,20,16,11,19.90
2012,07,20,16,12,19.90
2012,07,20,16,13,19.90
2012,07,20,16,14,19.90
2012,07,20,16,15,20.00
2012,07,20,16,16,20.10
2012,07,20,16,17,20.20
2012,07,20,16,18,20.30
2012,07,20,16,19,20.30
2012,07,20,16,20,20.20
2012,07,20,16,21,20.20
2012,07,20,16,22,20.10
2012,07,20,16,23,20.10
2012,07,20,16,24,20.00
2012,07,20,16,25,20.00
2012,07,20,16,26,19.90
2012,07,20,16,27,19.90
2012,07,20,16,28,19.90
2012,07,20,16,29,19.90
2012,07,20,16,30,19.90
2012,07,20,16,31,19.90
2012,07,20,16,32,19.80
2012,07,20,16,33,19.80
2012,07,20,16,34,19.70
2012,07,20,16,35,19.70
2012,07,20,16,36,19.60
2012,07,20,16,37,19.60
2012,07,20,16,38,19.50
2012,07,20,16,39,19.50
2012,07,20,16,40,19.50
2012,07,20,16,41,19.40
2012,07,20,16,42,19.40
2012,07,20,16,43,19.40
2012,07,20,16,44,19.30
2012,07,20,16,45,19.20
2012,07,20,16,46,19.10
2012,07,20,16,47,19.10
2012,07,20,16,48,19.00
2012,07,20,16,49,18.90
2012,07,20,16,50,18.90
2012,07,20,16,51,18.80
2012,07,20,16,52,18.70
2012,07,20,16,53,18.70
2012,07,20,16,54,18.70
2012,07,20,16,55,18.60
2012,07,20,16,56,18.60
2012,07,20,16,57,18.60
2012,07,20,16,58,18.70
2012,07,20,16,59,18.70
2012,07,20,17,00,18.80
2012,07,20,17,01,18.80
2012,07,20,17,02,18.80
2012,07,20,17,03,18.80
2012,07,20,17,04,18.90
2012,07,20,17,05,18.90
2012,07,20,17,06,18.80
2012,07,20,17,07,18.80
2012,07,20,17,08,18.80
2012,07,20,17,09,18.80
2012,07,20,17,10,18.80
2012,07,20,17,11,18.80
2012,07,20,17,12,18.70
2012,07,20,17,13,18.70
2012,07,20,17,14,18.70
2012,07,20,17,15,18.60
2012,07,20,17,16,18.60
2012,07,20,17,17,18.60
2012,07,20,17,18,18.60
2012,07,20,17,19,18.50